EW9965 Weather Reports


time (UTC)temp
F
wind
direction
speed
knots
gust
knots
rain 1hr
in
rain 24hr
in
rain mn
in
humidity
%
barometer
mb
20260509133023 59 22 0.9 4.3 0.00 0.00 0.00 90 1013.1
20260509131523 59 29 1.7 4.3 0.00 0.00 0.00 90 1013.0
20260509130019 59 315 0.0 0.0 0.00 0.00 0.00 90 1013.1
20260509124518 59 336 0.0 0.0 0.00 0.00 0.00 90 1013.2
20260509123017 59 30 0.0 3.5 0.00 0.00 0.00 90 1013.0
20260509121524 59 13 0.0 3.5 0.00 0.00 0.00 90 1012.9
20260509120016 59 36 0.9 3.5 0.00 0.00 0.00 90 1012.9
20260509114514 59 359 0.0 1.7 0.00 0.00 0.00 90 1012.9
20260509113013 59 40 0.0 3.5 0.00 0.00 0.00 90 1013.0
20260509111512 59 39 0.0 3.5 0.00 0.00 0.00 90 1013.0
20260509110012 59 25 0.9 5.2 0.00 0.00 0.00 90 1013.0
20260509104527 59 19 0.0 2.6 0.00 0.00 0.00 90 1013.1
20260509103007 60 357 1.7 3.5 0.00 0.00 0.00 90 1013.1
20260509101505 60 47 1.7 4.3 0.00 0.00 0.00 89 1013.2
20260509100005 60 41 0.9 4.3 0.00 0.00 0.00 89 1013.1
20260509094513 60 302 0.0 3.5 0.00 0.00 0.00 89 1013.3
20260509093001 60 71 0.0 1.7 0.00 0.00 0.00 88 1013.4
20260509091600 60 71 0.0 0.9 0.00 0.00 0.00 88 1013.6
20260509090107 60 51 0.0 4.3 0.00 0.00 0.00 88 1013.6
20260509084601 60 99 0.9 5.2 0.00 0.00 0.00 88 1013.8
20260509083055 60 103 0.9 3.5 0.00 0.00 0.00 88 1013.8
20260509081552 60 139 1.7 4.3 0.00 0.00 0.00 87 1013.8
20260509080056 59 78 0.0 1.7 0.00 0.00 0.00 87 1014.0
20260509074547 59 144 0.0 0.9 0.00 0.00 0.00 86 1014.1
20260509073052 59 144 0.0 0.0 0.00 0.00 0.00 85 1014.1
20260509071550 59 144 0.0 0.0 0.00 0.00 0.00 84 1014.4
20260509070041 59 144 0.0 0.0 0.00 0.00 0.00 84 1014.4
20260509064539 60 144 0.0 0.0 0.00 0.00 0.00 84 1014.4
20260509063040 60 144 0.0 0.0 0.00 0.00 0.00 84 1014.5
20260509061546 61 144 0.0 0.0 0.00 0.00 0.00 83 1014.6
20260509060038 61 144 0.0 3.5 0.00 0.00 0.00 83 1014.5
20260509054542 62 205 0.0 4.3 0.00 0.00 0.00 83 1014.5
20260509053037 62 201 0.0 3.5 0.00 0.00 0.00 83 1014.6
20260509051537 63 190 0.0 4.3 0.00 0.00 0.00 82 1014.7
20260509050047 63 207 0.0 1.7 0.00 0.00 0.00 81 1014.7
20260509044543 64 212 0.0 1.7 0.00 0.00 0.00 80 1014.6
20260509043033 64 192 0.0 3.5 0.00 0.00 0.00 79 1014.7
20260509041533 65 186 0.9 4.3 0.00 0.00 0.00 78 1014.6
20260509040037 66 188 0.9 4.3 0.00 0.00 0.00 76 1014.4
20260509034534 67 230 0.9 6.1 0.00 0.00 0.00 75 1014.2
20260509033031 67 160 1.7 5.2 0.00 0.00 0.00 73 1014.0
20260509031533 68 164 1.7 4.3 0.00 0.00 0.00 71 1014.0
20260509030033 69 195 4.3 6.1 0.00 0.00 0.00 69 1013.6
20260509024529 70 171 0.9 5.2 0.00 0.00 0.00 67 1013.5
20260509023031 71 153 0.0 4.3 0.00 0.00 0.00 65 1013.3
20260509021528 72 238 2.6 5.2 0.00 0.00 0.00 64 1013.2
20260509020027 73 203 0.9 6.1 0.00 0.00 0.00 63 1013.1
20260509014528 74 202 2.6 6.1 0.00 0.00 0.00 62 1013.0
20260509013037 75 235 3.5 6.1 0.00 0.00 0.00 60 1013.1
20260509011525 76 218 2.6 7.8 0.00 0.00 0.00 58 1013.0
20260509010024 77 262 2.6 7.0 0.00 0.00 0.00 57 1013.0
20260509004525 77 245 4.3 7.8 0.00 0.00 0.00 55 1013.0
20260509003022 78 215 2.6 10.4 0.00 0.00 0.00 55 1013.1
20260509001521 79 246 3.5 7.8 0.00 0.00 0.00 54 1013.1
20260509000020 80 218 3.5 9.6 0.00 0.00 0.00 52 1013.1
20260508234519 80 224 4.3 8.7 0.00 0.00 0.00 52 1013.2
20260508233017 81 197 3.5 7.8 0.00 0.00 0.00 51 1013.1
20260508231516 82 196 4.3 8.7 0.00 0.00 0.00 51 1013.1
20260508230034 82 184 2.6 8.7 0.00 0.00 0.00 50 1013.3
20260508224539 82 237 2.6 7.8 0.00 0.00 0.00 50 1013.3
20260508223024 83 193 7.0 11.3 0.00 0.00 0.00 50 1013.2
20260508221512 84 174 7.0 13.0 0.00 0.00 0.00 49 1013.3
20260508220012 84 189 7.0 16.5 0.00 0.00 0.00 48 1013.4
20260508214511 86 149 4.3 13.9 0.00 0.00 0.00 47 1013.4
20260508213010 85 173 4.3 8.7 0.00 0.00 0.00 46 1013.4
20260508211512 86 162 5.2 10.4 0.00 0.00 0.00 45 1013.4
20260508210008 86 149 5.2 8.7 0.00 0.00 0.00 44 1013.5
20260508204513 84 90 1.7 8.7 0.00 0.00 0.00 44 1013.6
20260508203001 85 232 0.9 7.8 0.00 0.00 0.00 45 1013.9
20260508201559 82 110 2.6 7.8 0.00 0.00 0.00 47 1014.0
20260508200057 82 110 3.5 7.0 0.00 0.00 0.00 49 1014.1
20260508194553 81 299 0.9 6.1 0.00 0.00 0.00 49 1014.3
20260508193120 78 139 3.5 7.0 0.00 0.00 0.00 53 1014.4
20260508191549 78 135 2.6 7.0 0.00 0.00 0.00 54 1014.7
20260508190043 77 232 1.7 7.0 0.00 0.00 0.00 56 1014.9
20260508184548 77 162 2.6 9.6 0.00 0.00 0.00 57 1015.0
20260508183039 74 159 0.0 5.2 0.00 0.00 0.00 63 1015.2
20260508181532 73 76 3.5 6.1 0.00 0.00 0.00 64 1015.3
20260508180031 72 165 2.6 6.1 0.00 0.00 0.00 68 1015.4
20260508174535 70 242 1.7 4.3 0.00 0.00 0.00 70 1015.6
20260508173023 69 122 3.5 6.1 0.00 0.00 0.00 71 1015.7
20260508171521 68 218 0.9 5.2 0.00 0.00 0.00 75 1015.6
20260508170020 67 248 2.6 6.1 0.00 0.00 0.00 75 1015.7
20260508164523 65 207 0.9 4.3 0.00 0.00 0.00 81 1015.9
20260508163011 63 28 0.0 3.5 0.00 0.00 0.00 84 1016.0
20260508161507 62 37 1.7 4.3 0.00 0.00 0.00 87 1016.1
20260508160004 61 61 1.7 4.3 0.00 0.00 0.00 87 1016.2
20260508154604 61 358 1.7 5.2 0.00 0.00 0.00 88 1016.3
20260508153059 61 359 0.0 1.7 0.00 0.00 0.00 88 1016.3
20260508151557 61 232 0.0 1.7 0.00 0.00 0.00 88 1016.3
20260508150052 60 231 0.0 4.3 0.00 0.00 0.00 88 1016.3
20260508144549 60 258 0.0 1.7 0.00 0.00 0.00 88 1016.3
20260508143045 60 251 0.0 3.5 0.00 0.00 0.00 88 1016.1
20260508141544 60 218 0.0 1.7 0.00 0.00 0.00 89 1015.9
20260508140044 60 290 0.0 0.0 0.00 0.00 0.00 89 1015.9
20260508134541 60 61 0.0 3.5 0.00 0.00 0.00 89 1015.7